TITAN 3C TRANSTAGE DEB, 27721

Orbit data source: Space-Track

TITAN 3C TRANSTAGE DEB, 27721 is space debris in LEO originally from a launch on Fri, 15 Oct 1965 UTC launched from the Air Force Eastern Test Range (AFETR). Debris objects in space refer to the collection of defunct objects orbiting the Earth. Examples of debris include non-operational satellites, rocket bodies, and fragments generated from explosions, collisions, or faulty payload assembly.

Loading next visibility...
Identifier
27721, 1965-082UT
Orbit
LEO
Country
Flag of USUS
Related business
Manufacturer
Unknown
Mission
Spacecraft
Bus & Motor
Unknown
Mass
Unknown
Launch date (UTC)
1965-10-15 (60 years ago)
Launch vehicle
Unknown
Launch site
Air Force Eastern Test Range (AFETR)
Object type
Payload
Rocket body
Debris
Shape & HBR
Unknown shape, 0.1 m
Radar Cross Section
Small (<0.1 m²)

Expand to show TLE details & history
Last TLE update: 17 hours ago

TLE from 17 hours ago
0 TITAN 3C TRANSTAGE DEB
1 27721U 65082UT  26104.86497286  .00001020  00000-0  24025-3 0  9992
2 27721  31.6387 353.4106 0112017   8.6109 351.6417 14.47659515638817
Epoch: 2026-04-14T20:45Z
TLE epoch observation values (Epoch: 2026-04-14T20:45:33.655Z)
Latitude
Longitude
-161.01472°
Altitude
653.139 km
Speed
7.575 km/s
True Right ascension
23h 33m 38s
True Declination
0° 00' 00"
Sunlit
Object was in daylight at epoch
Visualization orbit readout
Latitude
Unknown
Longitude
Unknown
Altitude
Unknown
Speed
Unknown
Apparent Right ascension
Unknown
Apparent Declination
Unknown
Sunlit
N/A
Visualization observer readout
Local Sidereal Time
20:22:54
Azimuth
Unknown
Elevation
Unknown
Doppler factor
Unknown
Orbital elements
Apogee altitude
816.647 km
Perigee altitude
657.245 km
Semi-major axis
7,115.083 km
Eccentricity
0.0112
Inclination
31.6387°
RAAN
353.4106°
Arg. of periapsis
8.6109°
True anomaly
351.45249°
Mean anomaly
351.6417°
Eccentric anomaly
351.54736°
Mean motion
3.61637 °/min
Orbital period
99.55 mins
BSTAR
0.00024025

Documentation

Showing up to 5 results
|